Flag for United Kingdom Weather past 2 weeks in London, England, United Kingdom

Now
30 °F

Clear.


Feels Like: 30 °F
Forecast: 36 / 42 °F
Wind: 2 mph from West

Location: Northolt

Current Time: Dec 26, 2014 at 2:34:04 AM

Latest Report: Dec 26, 2014 at 1:50 AM


Visibility: N/A

Pressure: 30.48 "Hg

Humidity: 93%

Dew point: 28 °F

Location of LondonLocation

Historic Weather in London — Graph

°F

London temperature yesterday

Maximum temperature yesterday: 46 °F (at 12:50 PM)
Minimum temperature yesterday: 34 °F (at 8:50 PM)
Average temperature yesterday: 40 °F

Past Weeks' High & Low Weather Summary

 TemperatureHumidityPressure
High57 °F (Dec 18, 11:50 AM)100% (Dec 13, 8:50 AM)30.48 "Hg (Dec 13, 8:50 AM)
Low27 °F (Dec 14, 12:50 AM)54% (Dec 24, 11:50 AM)29.27 "Hg (Dec 12, 4:50 AM)
Average46 °F82%29.96 "Hg
* Reported Dec 11 12:50 AM — Dec 26 12:50 AM, London, Weather by CustomWeather, © 2014

Note: Actual official high and low records may vary slightly from our data, if they occured in-between our weather recording intervals... More about our weather records

Advertising

London weather history for previous 24 hours

 ConditionsComfort  
Time TempWeatherWind HumidityBarometerVisibility
12:50 AM
Dec 26
32 °FClear.2 mph93%30.48 "HgN/A
11:50 PM
Dec 25
36 °FClear.5 mph87%30.48 "HgN/A
10:50 PM34 °FPassing clouds.5 mph93%30.48 "HgN/A
9:50 PM36 °FPassing clouds.7 mph87%30.48 "HgN/A
8:50 PM34 °FClear.6 mph93%30.48 "HgN/A
7:50 PM37 °FClear.6 mph81%30.45 "HgN/A
6:50 PM37 °FPassing clouds.5 mph87%30.45 "HgN/A
5:50 PM41 °FClear.7 mph81%30.45 "HgN/A
4:50 PM41 °FClear.7 mph81%30.42 "HgN/A
3:50 PM45 °FScattered clouds.7 mph71%30.42 "HgN/A
2:50 PM46 °FPassing clouds.7 mph66%30.39 "HgN/A
1:50 PM46 °FPassing clouds.10 mph66%30.39 "HgN/A
12:50 PM46 °FSunny.10 mph66%30.39 "HgN/A
11:50 AM45 °FSunny.14 mph71%30.39 "HgN/A
10:50 AM43 °FSunny.9 mph76%30.39 "HgN/A
9:50 AM41 °FSunny.7 mph81%30.36 "HgN/A
8:50 AM37 °FSunny.10 mph87%30.33 "HgN/A
7:50 AM36 °FClear.6 mph87%30.33 "HgN/A
6:50 AM36 °FClear.2 mph87%30.30 "HgN/A
5:50 AM37 °FClear.9 mph87%30.30 "HgN/A
4:50 AM39 °FPassing clouds.13 mph81%30.27 "HgN/A
3:50 AM39 °FOvercast.14 mph81%30.27 "HgN/A
2:50 AM39 °FPassing clouds.13 mph81%30.24 "HgN/A
Weather by CustomWeather, © 2014

See weather overviewHow to use our weather pages